Home   Weather   Pudukkottai   Past weeks

Flag for India Past Weather in Pudukkottai, Tamil Nadu, India — Yesterday and Last 2 Weeks

91 °F


Feels Like: 100 °F
Forecast: 74 / 92 °F
Wind: 6 mph from Northeast

Location: Tiruchchirapalli

Current Time: Oct 23, 2016 at 3:16:08 PM

Latest Report: Oct 23, 2016 at 2:30 PM

Visibility: 2 mi

Pressure: 29.74 "Hg

Humidity: 56%

Dew Point: 73 °F

Location of PudukkottaiLocation

Past Weather in Pudukkottai — Graph


Pudukkottai Temperature Yesterday

Maximum temperature yesterday: 91 °F (at 1:30 PM)
Minimum temperature yesterday: 77 °F (at 12:00 AM)
Average temperature yesterday: 82 °F

High & Low Weather Summary for the Past Weeks

High100 °F (Oct 8, 3:00 PM)100% (Oct 13, 6:00 AM)29.89 "Hg (Oct 13, 6:00 AM)
Low75 °F (Oct 12, 11:30 PM)31% (Oct 9, 4:00 PM)29.62 "Hg (Oct 19, 4:00 PM)
Average85 °F66%29.77 "Hg
* Reported Oct 8 1:30 PM — Oct 23 2:00 PM, Pudukkottai, Weather by CustomWeather, © 2016

Note: Actual official high and low records may vary slightly from our data, if they occured in-between our weather recording intervals... More about our weather records


Pudukkottai Weather History for the Previous 24 Hours

Scroll right to see more
Time TempWeatherWind HumidityBarometerVisibility
2:00 PM
Sun, Oct 23
91 °FHaze.5 mph56%29.77 "Hg2 mi
1:30 PM91 °FHaze.5 mph56%29.77 "Hg2 mi
1:00 PM90 °FHaze.7 mph59%29.80 "Hg2 mi
12:30 PM90 °FHaze.7 mph59%29.80 "Hg2 mi
12:00 PM88 °FHaze.7 mph62%29.83 "Hg2 mi
11:30 AM88 °FHaze.7 mph62%29.83 "Hg2 mi
11:00 AM88 °FHaze.7 mph62%29.86 "Hg2 mi
10:30 AM86 °FHaze.8 mph66%29.86 "Hg2 mi
10:00 AM86 °FHaze.7 mph66%29.86 "Hg2 mi
9:30 AM84 °FHaze.9 mph70%29.86 "Hg2 mi
9:00 AM82 °FFog.9 mph74%29.86 "Hg1 mi
8:30 AM82 °FFog.7 mph74%29.86 "Hg1 mi
8:00 AM82 °FFog.7 mph74%29.86 "Hg1 mi
7:30 AM81 °FFog.6 mph79%29.86 "Hg1 mi
7:00 AM79 °FFog.5 mph84%29.83 "Hg1 mi
6:30 AM77 °FFog.3 mph89%29.83 "Hg1 mi
6:00 AM77 °FFog.3 mph89%29.83 "Hg1 mi
5:30 AM77 °FFog.No wind89%29.83 "Hg1 mi
5:00 AM77 °FFog.No wind89%29.80 "Hg1 mi
4:30 AM77 °FFog.No wind89%29.80 "Hg1 mi
4:00 AM77 °FFog.No wind89%29.80 "Hg1 mi
3:30 AM77 °FFog.No wind89%29.80 "Hg1 mi
3:00 AM77 °FFog.No wind89%29.80 "Hg1 mi
2:30 AM77 °FFog.3 mph89%29.80 "Hg2 mi
2:00 AM79 °FFog.5 mph84%29.80 "Hg2 mi
1:30 AM79 °FFog.3 mph84%29.80 "Hg2 mi
1:00 AM79 °FFog.3 mph84%29.80 "Hg2 mi
12:30 AM79 °FFog.3 mph84%29.83 "Hg2 mi
12:00 AM79 °FFog.3 mph84%29.83 "Hg2 mi
11:30 PM
Sat, Oct 22
79 °FFog.5 mph84%29.83 "Hg2 mi
11:00 PM79 °FFog.6 mph84%29.83 "Hg2 mi
10:30 PM79 °FFog.5 mph84%29.83 "Hg2 mi
10:00 PM79 °FFog.3 mph84%29.83 "Hg2 mi
9:30 PM79 °FFog.5 mph84%29.83 "Hg2 mi
9:00 PM79 °FFog.6 mph84%29.83 "Hg2 mi
8:30 PM81 °FPartly cloudy.6 mph79%29.83 "Hg2 mi
8:00 PM82 °FPartly cloudy.8 mph74%29.83 "Hg2 mi
7:30 PM84 °FPartly cloudy.6 mph70%29.80 "Hg2 mi
7:00 PM84 °FPartly cloudy.7 mph70%29.80 "Hg2 mi
6:30 PM84 °FPartly cloudy.3 mph70%29.77 "Hg2 mi
6:00 PM86 °FBroken clouds.2 mph66%29.74 "Hg2 mi
5:30 PM86 °FBroken clouds.5 mph66%29.74 "Hg2 mi
5:00 PM88 °FBroken clouds.6 mph62%29.74 "Hg2 mi
4:30 PM90 °FBroken clouds.3 mph59%29.71 "Hg2 mi
4:00 PM90 °FBroken clouds.7 mph59%29.71 "Hg2 mi
3:30 PM91 °FScattered clouds.9 mph56%29.74 "Hg2 mi
3:00 PM91 °FScattered clouds.7 mph56%29.74 "Hg2 mi
Weather by CustomWeather, © 2016

See weather overviewHow to use our weather pages